FW3057 Weather Reports


Display with metric or nautical units.
time (UTC)temp
F
wind
direction
speed
MPH
gust
MPH
rain 1hr
in
rain 24hr
in
rain mn
in
humidity
%
barometer
mb
20260505200311 52 321 4.0 7.0 0.00 1.46 1.46 97 1012.1
20260505195311 52 16 4.0 10.0 0.00 1.46 1.46 97 1012.1
20260505194312 52 334 5.0 11.0 0.00 1.46 1.46 97 1012.0
20260505193311 52 305 6.0 9.0 0.00 1.46 1.46 98 1011.9
20260505191311 52 297 6.0 9.0 0.00 1.46 1.46 98 1011.9
20260505190311 52 338 3.0 7.0 0.00 1.46 1.46 98 1012.0
20260505185311 52 11 4.0 10.0 0.00 1.46 1.46 98 1011.8
20260505184311 52 18 4.0 8.0 0.00 1.46 1.46 98 1011.8
20260505183311 52 316 6.0 10.0 0.00 1.46 1.46 98 1011.8
20260505182311 53 324 4.0 9.0 0.00 1.46 1.46 98 1011.8
20260505181311 53 27 5.0 13.0 0.00 1.46 1.46 98 1011.7
20260505175311 53 340 5.0 9.0 0.00 1.46 1.46 98 1011.9
20260505174311 53 290 5.0 13.0 0.00 1.46 1.46 98 1011.9
20260505173311 53 307 6.0 11.0 0.00 1.46 1.46 99 1011.8
20260505172311 53 1 7.0 11.0 0.00 1.46 1.46 99 1011.8
20260505170311 54 37 5.0 9.0 0.00 1.46 1.46 99 1011.9
20260505165311 54 13 7.0 9.0 0.00 1.46 1.46 99 1011.9
20260505164310 53 322 6.0 11.0 0.01 1.46 1.46 99 1011.9
20260505163311 54 4 6.0 10.0 0.02 1.46 1.46 99 1011.9
20260505162310 53 354 6.0 10.0 0.02 1.46 1.46 99 1011.8
20260505161311 53 348 4.0 15.0 0.02 1.46 1.46 99 1012.0
20260505160311 53 351 5.0 12.0 0.03 1.46 1.46 99 1011.9
20260505153310 53 354 7.0 12.0 0.02 1.45 1.45 99 1011.9
20260505152310 53 333 4.0 12.0 0.03 1.44 1.44 99 1011.9
20260505150310 53 21 5.0 11.0 0.04 1.43 1.43 99 1011.8
20260505140310 53 18 5.0 11.0 0.06 1.39 1.39 99 1011.8
20260505130310 53 309 3.0 9.0 0.05 1.34 1.34 99 1011.8
20260505124310 53 44 6.0 10.0 0.04 1.32 1.32 99 1011.7
20260505123312 53 331 5.0 11.0 0.03 1.31 1.31 99 1011.7
20260505122310 53 32 4.0 9.0 0.03 1.31 1.31 99 1011.8
20260505121310 53 11 4.0 9.0 0.03 1.30 1.30 99 1011.7
20260505120310 53 11 3.0 10.0 0.03 1.29 1.29 99 1011.8
20260505115310 53 20 5.0 10.0 0.04 1.29 1.29 99 1011.8
20260505114310 53 46 3.0 7.0 0.03 1.28 1.28 99 1011.8
20260505113310 53 300 3.0 10.0 0.04 1.28 1.28 99 1011.9
20260505112310 53 25 3.0 10.0 0.03 1.28 1.28 99 1011.8
20260505111310 53 349 4.0 7.0 0.04 1.27 1.27 99 1011.9
20260505110310 53 124 2.0 11.0 0.04 1.26 1.26 99 1011.9
20260505101310 53 178 1.0 8.0 0.07 1.23 1.23 99 1011.7
20260505095310 53 13 3.0 10.0 0.08 1.21 1.21 99 1011.8
20260505094310 53 326 6.0 11.0 0.08 1.20 1.20 99 1011.7
20260505093310 53 68 3.0 7.0 0.08 1.19 1.19 99 1011.5
20260505092310 53 41 3.0 9.0 0.09 1.17 1.17 99 1011.6
20260505091310 53 51 3.0 8.0 0.09 1.16 1.16 99 1011.6
20260505090310 53 4 4.0 9.0 0.11 1.15 1.15 98 1011.5
20260505085310 53 314 3.0 10.0 0.13 1.13 1.13 98 1011.5
20260505084310 53 84 3.0 10.0 0.13 1.13 1.13 98 1011.6
20260505083310 53 4 5.0 10.0 0.16 1.11 1.11 98 1011.5
20260505082311 52 23 5.0 14.0 0.18 1.09 1.09 98 1011.4
20260505081310 52 1 4.0 7.0 0.20 1.06 1.06 98 1011.5
20260505080309 52 307 5.0 7.0 0.20 1.04 1.04 98 1011.5
20260505075310 51 1 2.0 5.0 0.20 1.01 1.01 98 1011.6
20260505074309 51 46 3.0 7.0 0.20 0.99 0.99 98 1011.5
20260505073309 51 348 4.0 9.0 0.20 0.95 0.95 98 1011.6
20260505072309 51 18 4.0 7.0 0.18 0.91 0.91 98 1011.5
20260505071309 51 354 3.0 6.0 0.15 0.87 0.87 98 1011.6
20260505070309 51 351 4.0 6.0 0.13 0.83 0.83 98 1011.6
20260505065309 51 353 4.0 7.0 0.13 0.81 0.81 98 1011.6
20260505063309 51 334 3.0 7.0 0.10 0.76 0.76 98 1011.7
20260505062309 51 295 4.0 8.0 0.09 0.72 0.72 98 1011.7
20260505061309 51 284 4.0 7.0 0.11 0.72 0.72 98 1011.6
20260505060311 51 13 3.0 8.0 0.11 0.70 0.70 97 1011.6
20260505055309 51 314 5.0 8.0 0.11 0.69 0.69 97 1011.6
20260505054309 51 300 4.0 7.0 0.10 0.67 0.67 97 1011.6
20260505053309 51 46 3.0 6.0 0.10 0.65 0.65 97 1011.8
20260505051309 50 321 3.0 6.0 0.06 0.61 0.61 97 1011.8
20260505050309 50 314 3.0 5.0 0.06 0.59 0.59 97 1011.8
20260505041310 51 322 3.0 9.0 0.12 0.54 0.54 97 1011.9
20260505040310 51 314 3.0 6.0 0.11 0.53 0.53 97 1012.1
20260505034310 51 1 4.0 8.0 0.07 0.47 0.47 97 1012.3
20260505033310 51 41 2.0 5.0 0.06 0.45 0.45 97 1012.3
20260505031310 51 319 2.0 5.0 0.08 0.43 0.43 97 1012.4
20260505030310 51 21 4.0 5.0 0.09 0.42 0.42 97 1012.4
20260505025310 51 311 2.0 6.0 0.09 0.41 0.41 97 1012.5
20260505024310 51 324 2.0 5.0 0.09 0.40 0.40 96 1012.5
20260505022310 52 314 2.0 6.0 0.08 0.36 0.36 96 1012.4
20260505021310 52 326 3.0 6.0 0.08 0.35 0.35 96 1012.4
20260505020310 52 302 3.0 5.0 0.09 0.33 0.33 96 1012.5
20260505014310 52 1 2.0 5.0 0.13 0.31 0.31 96 1012.7
20260505011310 53 327 3.0 7.0 0.14 0.27 0.27 96 1012.8
20260505010310 53 354 3.0 7.0 0.13 0.24 0.24 96 1012.9
20260505005310 53 13 4.0 6.0 0.12 0.22 0.22 96 1012.9
20260505004310 53 354 5.0 8.0 0.10 0.19 0.19 95 1013.0
20260505003310 53 4 5.0 11.0 0.09 0.17 0.17 95 1013.1
20260505002310 53 314 5.0 8.0 0.09 0.14 0.14 95 1013.2
20260505001310 53 14 4.0 8.0 0.09 0.13 0.13 95 1013.3
20260505000310 54 327 3.0 8.0 0.09 0.12 0.12 94 1013.2
20260504235310 54 300 3.0 6.0 0.08 0.10 0.10 94 1013.4
20260504232310 54 1 1.0 4.0 0.04 0.05 0.05 93 1013.5
20260504231310 54 302 1.0 2.0 0.04 0.04 0.04 93 1013.5
20260504224310 55 331 2.0 5.0 0.02 0.02 0.02 92 1013.4
20260504223310 55 11 3.0 6.0 0.01 0.01 0.01 92 1013.5
20260504221309 55 300 2.0 3.0 0.00 0.00 0.00 91 1013.5
20260504220310 55 327 1.0 2.0 0.00 0.00 0.00 91 1013.6
20260504215310 55 306 2.0 3.0 0.00 0.00 0.00 91 1013.6
20260504214309 55 1 2.0 3.0 0.00 0.00 0.00 91 1013.6
20260504213309 55 1 1.0 4.0 0.00 0.00 0.00 91 1013.7
20260504210309 55 331 4.0 6.0 0.00 0.00 0.00 91 1013.9
20260504205309 55 330 2.0 5.0 0.00 0.00 0.00 91 1013.9
20260504204309 55 331 2.0 4.0 0.00 0.00 0.00 91 1013.9
20260504203310 55 322 2.0 3.0 0.00 0.00 0.00 91 1013.9
20260504201310 56 309 3.0 5.0 0.00 0.00 0.00 90 1013.8